Regional Weather Roundup
Issued by NWS

Home | Current Version | Previous Version | Text Only | Print | Product List | Glossary Off
Versions: 1 2 3 4 5 6 7 8 9 10 11 12 13 14 15 16 17 18 19 20 21 22 23 24 25 26 27 28 29 30 31 32 33 34 35 36 37 38 39 40 41 42 43 44 45 46 47 48 49 50

000
ASUS45 KBOI 241910
RWRID
WEATHER ROUNDUP FOR IDAHO
NATIONAL WEATHER SERVICE BOISE ID
100 PM MDT FRI APR 24 2015

NOTE: "FAIR" INDICATES FEW OR NO CLOUDS BELOW 12000 FEET
WITH NO SIGNIFICANT WEATHER AND/OR OBSTRUCTIONS TO VISIBILITY

IDZ012-014-242000-
SOUTHWEST IDAHO


CITY           SKY/WX    TMP DP  RH WIND       PRES   REMARKS
BOISE          CLOUDY    51  40  65 NW9       29.77R
CALDWELL       CLOUDY    52  37  58 N10       29.79S
MOUNTAIN HOME  CLOUDY    52  39  63 W14       29.76S
$$

IDZ016-017-242000-
SOUTHCENTRAL IDAHO


CITY           SKY/WX    TMP DP  RH WIND       PRES   REMARKS
BURLEY         CLOUDY    47  36  65 W16G28    29.73R
JEROME         CLOUDY    47  36  65 SW18      29.75S
TWIN FALLS     LGT RAIN  47  37  68 SW12      29.76F
$$

IDZ019>023-242000-
SOUTHEAST IDAHO


CITY           SKY/WX    TMP DP  RH WIND       PRES   REMARKS
IDAHO FALLS    MOSUNNY   60  36  40 SW14G24   29.66F
POCATELLO      MOSUNNY   58  40  51 W17       29.70F
REXBURG        MOSUNNY   61  33  35 SW15G26   29.65F
$$

IDZ006-010-011-018-031-032-242000-
CENTRAL IDAHO MOUNTAINS


CITY           SKY/WX    TMP DP  RH WIND       PRES   REMARKS
MCCALL         LGT RAIN  37  35  92 CALM      29.74S FOG
HAILEY         LGT RAIN  43  37  81 S6        29.73R
STANLEY          N/A     41  34  76 N3        29.71F
SALMON         CLOUDY    43  37  81 N5        29.70R
CHALLIS        LGT RAIN  44  39  82 E8        29.66S
$$

IDZ002-004-006-007-026-242000-
NORTHERN IDAHO


CITY           SKY/WX    TMP DP  RH WIND       PRES   REMARKS
LEWISTON       PTSUNNY   54  34  46 VRB3      29.81F
LOWELL         NOT AVBL
COEUR D`ALENE  CLOUDY    48  27  43 W5G20     29.81S
MULLAN PASS    CLOUDY    34  22  61 VRB3      29.73S
$$


USA.gov is the U.S. government's official web portal to all federal, state and local government web resources and services.